Location: Elstree
(51.6403°N, 0.2969°W)
Time: 19:54:57
(UTC+00:00)

Terra - Pass Details

Date: 21 June 2021
Orbit: 701 x 703 km, 98.2° (Epoch: 24 July)

Event Time Altitude Azimuth Distance (km) Brightness Sun altitude
Exits shadow 21:24:16 - 152° (SSE) 2,275 3.8 -7.2°
Reaches altitude 10° 21:24:32 10° 151° (SSE) 2,169 3.7 -7.3°
Maximum altitude 21:29:14 64° 71° (ENE) 780 2.0 -7.7°
Drops below altitude 10° 21:33:58 10° 351° (N) 2,184 5.6 -8.1°
Sets 21:36:15 0° 348° (NNW) 3,107 6.6 -8.3°
